Time,TemperatureF,DewpointF,PressureIn,WindDirection,WindDirectionDegrees,WindSpeedMPH,WindSpeedGustMPH,Humidity,HourlyPrecipIn,Conditions,Clouds,dailyrainin,SolarRadiationWatts/m^2,SoftwareType,DateUTC
2014-02-20 00:00:00,49.1,48.0,30.18,South,180,2.5,2.9,96,0.00,,,0.00,0.00,VWS V14.01,2014-02-20 08:00:00,
2014-02-20 00:04:00,49.1,48.0,30.18,South,180,1.3,2.0,96,0.00,,,0.00,0.00,VWS V14.01,2014-02-20 08:04:00,
2014-02-20 00:09:00,49.1,48.0,30.18,South,180,2.2,2.2,96,0.00,,,0.00,0.00,VWS V14.01,2014-02-20 08:09:00,
2014-02-20 00:14:00,49.1,48.0,30.18,South,180,1.3,2.9,96,0.00,,,0.00,0.00,VWS V14.01,2014-02-20 08:14:00,
2014-02-20 00:15:00,49.1,48.0,30.18,South,180,1.3,2.9,96,0.00,,,0.00,0.00,VWS V14.01,2014-02-20 08:15:00,
2014-02-20 00:19:00,49.1,48.0,30.18,South,180,2.2,2.2,96,0.00,,,0.00,0.00,VWS V14.01,2014-02-20 08:19:00,
2014-02-20 00:24:00,49.1,48.0,30.18,South,180,0.0,2.2,96,0.00,,,0.00,0.00,VWS V14.01,2014-02-20 08:24:00,
2014-02-20 00:29:00,49.1,48.0,30.18,South,180,0.0,2.2,96,0.00,,,0.00,0.00,VWS V14.01,2014-02-20 08:29:00,
2014-02-20 00:30:00,47.7,47.1,30.18,SSW,202,2.5,2.9,98,0.00,,,0.00,0.00,VWS V14.01,2014-02-20 08:30:00,
2014-02-20 00:34:00,49.1,48.0,30.18,South,180,2.0,2.7,96,0.00,,,0.00,0.00,VWS V14.01,2014-02-20 08:34:00,
2014-02-20 00:39:00,49.1,48.0,30.18,South,180,2.7,2.9,96,0.00,,,0.00,0.00,VWS V14.01,2014-02-20 08:39:00,
2014-02-20 00:44:00,49.1,48.0,30.18,SW,225,2.2,2.9,96,0.00,,,0.00,0.00,VWS V14.01,2014-02-20 08:44:00,
2014-02-20 00:45:00,47.7,47.1,30.18,SSW,202,2.7,2.9,98,0.00,,,0.00,0.00,VWS V14.01,2014-02-20 08:45:00,
2014-02-20 00:49:00,49.1,48.0,30.18,SSW,202,2.0,2.9,96,0.00,,,0.00,0.00,VWS V14.01,2014-02-20 08:49:00,
2014-02-20 00:54:00,49.1,48.0,30.18,SSW,202,2.5,2.9,96,0.00,,,0.00,0.00,VWS V14.01,2014-02-20 08:54:00,
2014-02-20 00:59:00,49.1,48.0,30.18,South,180,2.5,2.9,96,0.00,,,0.00,0.00,VWS V14.01,2014-02-20 08:59:00,
2014-02-20 01:00:00,47.7,47.1,30.18,South,180,0.9,2.9,98,0.00,,,0.00,0.00,VWS V14.01,2014-02-20 09:00:00,
2014-02-20 01:04:00,49.1,48.0,30.18,South,180,2.5,2.9,96,0.00,,,0.00,0.00,VWS V14.01,2014-02-20 09:04:00,
2014-02-20 01:10:00,49.1,48.0,30.18,South,180,2.2,2.9,96,0.00,,,0.00,0.00,VWS V14.01,2014-02-20 09:10:00,
2014-02-20 01:15:00,49.1,48.0,30.18,South,180,1.3,2.9,96,0.00,,,0.00,0.00,VWS V14.01,2014-02-20 09:15:00,
2014-02-20 01:20:00,49.1,48.0,30.18,South,180,1.3,2.7,96,0.00,,,0.00,0.00,VWS V14.01,2014-02-20 09:20:00,
2014-02-20 01:25:00,47.7,47.1,30.18,SW,225,2.2,2.9,98,0.00,,,0.00,0.00,VWS V14.01,2014-02-20 09:25:00,
2014-02-20 01:30:00,47.7,47.1,30.18,SSW,202,2.5,2.9,98,0.00,,,0.00,0.00,VWS V14.01,2014-02-20 09:30:00,
2014-02-20 01:35:00,47.7,47.1,30.18,SSW,202,1.6,2.5,98,0.00,,,0.00,0.00,VWS V14.01,2014-02-20 09:35:00,
2014-02-20 01:40:00,47.7,47.1,30.18,SSW,202,1.6,2.5,98,0.00,,,0.00,0.00,VWS V14.01,2014-02-20 09:40:00,
2014-02-20 01:45:00,47.7,47.1,30.18,SSW,202,2.7,2.9,98,0.00,,,0.00,0.00,VWS V14.01,2014-02-20 09:45:00,
2014-02-20 01:50:00,47.7,47.1,30.18,SSW,202,2.5,2.7,98,0.00,,,0.00,0.00,VWS V14.01,2014-02-20 09:50:00,
2014-02-20 01:55:00,47.7,47.1,30.18,South,180,2.2,2.7,98,0.00,,,0.00,0.00,VWS V14.01,2014-02-20 09:55:00,
2014-02-20 02:00:00,47.7,47.1,30.18,South,180,0.0,0.9,98,0.00,,,0.00,0.00,VWS V14.01,2014-02-20 10:00:00,
2014-02-20 02:05:00,47.7,47.1,30.18,South,180,2.5,2.5,98,0.00,,,0.00,0.00,VWS V14.01,2014-02-20 10:05:00,
2014-02-20 02:10:00,47.7,47.1,30.18,South,180,2.0,2.5,98,0.00,,,0.00,0.00,VWS V14.01,2014-02-20 10:10:00,
2014-02-20 02:15:00,47.7,47.1,30.18,South,180,2.0,2.0,98,0.00,,,0.00,0.00,VWS V14.01,2014-02-20 10:15:00,
2014-02-20 02:20:00,47.7,47.1,30.18,South,180,0.0,2.0,98,0.00,,,0.00,0.00,VWS V14.01,2014-02-20 10:20:00,
2014-02-20 02:25:00,47.7,47.1,30.18,SSW,202,2.2,2.7,98,0.00,,,0.00,0.00,VWS V14.01,2014-02-20 10:25:00,
2014-02-20 02:30:00,47.7,47.1,30.18,SSW,202,1.3,1.3,98,0.00,,,0.00,0.00,VWS V14.01,2014-02-20 10:30:00,
2014-02-20 02:35:00,47.7,47.1,30.18,SSW,202,1.1,1.3,98,0.00,,,0.00,0.00,VWS V14.01,2014-02-20 10:35:00,
2014-02-20 02:40:00,47.7,47.1,30.18,SSW,202,2.5,2.5,98,0.00,,,0.00,0.00,VWS V14.01,2014-02-20 10:40:00,
2014-02-20 02:45:00,47.7,47.1,30.18,SW,225,2.5,2.5,98,0.00,,,0.00,0.00,VWS V14.01,2014-02-20 10:45:00,
2014-02-20 02:50:00,47.7,47.1,30.18,SSW,202,2.9,3.1,98,0.00,,,0.00,0.00,VWS V14.01,2014-02-20 10:50:00,
2014-02-20 02:55:00,47.7,47.1,30.15,SSW,202,2.2,3.1,98,0.00,,,0.00,0.00,VWS V14.01,2014-02-20 10:55:00,
2014-02-20 03:00:00,47.7,47.1,30.15,SSW,202,3.1,3.1,98,0.00,,,0.00,0.00,VWS V14.01,2014-02-20 11:00:00,
2014-02-20 03:05:00,47.7,47.1,30.15,SSW,202,2.7,3.1,98,0.00,,,0.00,0.00,VWS V14.01,2014-02-20 11:05:00,
2014-02-20 03:10:00,47.7,47.1,30.18,SSW,202,0.0,3.4,98,0.00,,,0.00,0.00,VWS V14.01,2014-02-20 11:10:00,
2014-02-20 03:15:00,47.7,47.1,30.18,SSW,202,1.3,1.3,98,0.00,,,0.00,0.00,VWS V14.01,2014-02-20 11:15:00,
2014-02-20 03:20:00,47.7,47.1,30.18,SSW,202,1.6,2.5,98,0.00,,,0.00,0.00,VWS V14.01,2014-02-20 11:20:00,
2014-02-20 03:25:00,47.7,47.1,30.18,SSW,202,2.5,2.7,98,0.00,,,0.00,0.00,VWS V14.01,2014-02-20 11:25:00,
2014-02-20 03:30:00,47.7,47.1,30.18,South,180,2.7,2.7,98,0.00,,,0.00,0.00,VWS V14.01,2014-02-20 11:30:00,
2014-02-20 03:35:00,47.7,47.1,30.18,South,180,2.0,2.7,98,0.00,,,0.00,0.00,VWS V14.01,2014-02-20 11:35:00,
2014-02-20 03:40:00,47.7,47.1,30.18,South,180,2.2,2.7,98,0.00,,,0.00,0.00,VWS V14.01,2014-02-20 11:40:00,
2014-02-20 03:45:00,47.7,47.1,30.18,SSW,202,2.7,2.9,98,0.00,,,0.00,0.00,VWS V14.01,2014-02-20 11:45:00,
2014-02-20 03:50:00,47.7,47.1,30.18,SSW,202,2.5,2.9,98,0.00,,,0.00,0.00,VWS V14.01,2014-02-20 11:50:00,
2014-02-20 03:55:00,47.7,47.1,30.18,SSW,202,2.5,3.1,98,0.00,,,0.00,0.00,VWS V14.01,2014-02-20 11:55:00,
2014-02-20 04:00:00,47.7,47.1,30.18,SSW,202,2.0,2.0,98,0.00,,,0.00,0.00,VWS V14.01,2014-02-20 12:00:00,
2014-02-20 04:05:00,47.7,47.1,30.15,SSW,202,2.9,2.9,98,0.00,,,0.00,0.00,VWS V14.01,2014-02-20 12:05:00,
2014-02-20 04:10:00,47.7,47.1,30.15,SW,225,2.2,3.1,98,0.00,,,0.00,0.00,VWS V14.01,2014-02-20 12:10:00,
2014-02-20 04:15:00,47.7,47.1,30.15,SSW,202,2.0,2.5,98,0.00,,,0.00,0.00,VWS V14.01,2014-02-20 12:15:00,
2014-02-20 04:20:00,47.7,47.1,30.15,South,180,1.3,2.9,98,0.00,,,0.00,0.00,VWS V14.01,2014-02-20 12:20:00,
2014-02-20 04:25:00,47.7,47.1,30.15,South,180,1.6,2.9,98,0.00,,,0.00,0.00,VWS V14.01,2014-02-20 12:25:00,
2014-02-20 04:30:00,47.7,47.1,30.15,SSW,202,2.0,2.7,98,0.00,,,0.00,0.00,VWS V14.01,2014-02-20 12:30:00,
2014-02-20 04:35:00,47.7,47.1,30.15,South,180,1.1,2.7,98,0.00,,,0.00,0.00,VWS V14.01,2014-02-20 12:35:00,
2014-02-20 04:40:00,47.7,47.1,30.15,SW,225,1.3,2.7,98,0.00,,,0.00,0.00,VWS V14.01,2014-02-20 12:40:00,
2014-02-20 04:45:00,47.7,47.1,30.15,SW,225,1.6,2.2,98,0.00,,,0.00,0.00,VWS V14.01,2014-02-20 12:45:00,
2014-02-20 04:50:00,47.7,47.1,30.15,South,180,0.0,2.9,98,0.00,,,0.00,0.00,VWS V14.01,2014-02-20 12:50:00,
2014-02-20 04:55:00,47.7,47.1,30.15,South,180,1.6,2.9,98,0.00,,,0.00,0.00,VWS V14.01,2014-02-20 12:55:00,
2014-02-20 05:00:00,47.7,47.1,30.15,South,180,2.0,2.9,98,0.00,,,0.00,0.00,VWS V14.01,2014-02-20 13:00:00,
2014-02-20 05:05:00,47.7,47.1,30.18,SSE,158,2.0,2.9,98,0.00,,,0.00,0.00,VWS V14.01,2014-02-20 13:05:00,
2014-02-20 05:10:00,47.7,47.1,30.18,SSE,158,1.3,2.9,98,0.00,,,0.00,0.00,VWS V14.01,2014-02-20 13:10:00,
2014-02-20 05:15:00,47.7,47.1,30.18,SSE,158,2.2,2.2,98,0.00,,,0.00,0.00,VWS V14.01,2014-02-20 13:15:00,
2014-02-20 05:20:00,47.7,47.1,30.15,SW,225,2.7,2.9,98,0.00,,,0.00,0.00,VWS V14.01,2014-02-20 13:20:00,
2014-02-20 05:25:00,47.7,47.1,30.15,SSW,202,3.1,3.1,98,0.00,,,0.00,0.00,VWS V14.01,2014-02-20 13:25:00,
2014-02-20 05:30:00,47.7,47.1,30.15,SSW,202,2.0,3.4,98,0.00,,,0.00,0.00,VWS V14.01,2014-02-20 13:30:00,
2014-02-20 05:31:00,47.7,47.1,30.15,SSW,202,2.0,2.7,98,0.00,,,0.00,0.00,VWS V14.01,2014-02-20 13:31:00,
2014-02-20 05:36:00,47.7,47.1,30.15,SSW,202,2.0,2.7,98,0.00,,,0.00,0.00,VWS V14.01,2014-02-20 13:36:00,
2014-02-20 05:41:00,47.7,47.1,30.15,SSW,202,2.7,2.7,98,0.00,,,0.00,0.00,VWS V14.01,2014-02-20 13:41:00,
2014-02-20 05:45:00,46.0,46.0,30.18,SSW,202,2.0,2.2,100,0.00,,,0.00,0.00,VWS V14.01,2014-02-20 13:45:00,
2014-02-20 05:46:00,47.7,47.1,30.15,SSW,202,2.5,2.5,98,0.00,,,0.00,0.00,VWS V14.01,2014-02-20 13:46:00,
2014-02-20 05:51:00,47.7,47.1,30.15,SSW,202,1.6,2.5,98,0.00,,,0.00,0.00,VWS V14.01,2014-02-20 13:51:00,
2014-02-20 05:56:00,47.7,47.1,30.15,SSW,202,2.2,2.7,98,0.00,,,0.00,0.00,VWS V14.01,2014-02-20 13:56:00,
2014-02-20 06:00:00,45.9,45.9,30.18,SSW,202,0.0,2.2,100,0.00,,,0.00,0.00,VWS V14.01,2014-02-20 14:00:00,
2014-02-20 06:01:00,47.7,47.1,30.15,SSW,202,1.1,1.1,98,0.00,,,0.00,0.00,VWS V14.01,2014-02-20 14:01:00,
2014-02-20 06:06:00,47.7,47.1,30.15,SSW,202,2.0,2.7,98,0.00,,,0.00,0.00,VWS V14.01,2014-02-20 14:06:00,
2014-02-20 06:11:00,47.7,47.1,30.15,SSW,202,2.5,2.7,98,0.00,,,0.00,0.00,VWS V14.01,2014-02-20 14:11:00,
2014-02-20 06:15:00,45.9,45.9,30.18,SSW,202,2.5,2.5,100,0.00,,,0.00,0.00,VWS V14.01,2014-02-20 14:15:00,
2014-02-20 06:16:00,47.7,47.1,30.15,SSW,202,2.2,3.4,98,0.00,,,0.00,0.00,VWS V14.01,2014-02-20 14:16:00,
2014-02-20 06:21:00,47.7,47.1,30.15,SSW,202,2.5,3.4,98,0.00,,,0.00,0.00,VWS V14.01,2014-02-20 14:21:00,
2014-02-20 06:26:00,47.7,47.1,30.15,WSW,248,0.0,3.4,98,0.00,,,0.00,0.00,VWS V14.01,2014-02-20 14:26:00,
2014-02-20 06:30:00,46.6,46.6,30.18,SSW,202,1.6,2.5,100,0.00,,,0.00,0.00,VWS V14.01,2014-02-20 14:30:00,
2014-02-20 06:31:00,47.7,47.1,30.15,SSW,202,1.6,2.0,98,0.00,,,0.00,0.00,VWS V14.01,2014-02-20 14:31:00,
2014-02-20 06:36:00,46.0,46.0,30.18,SSW,202,0.9,2.2,100,0.00,,,0.00,0.00,VWS V14.01,2014-02-20 14:36:00,
2014-02-20 06:41:00,46.0,46.0,30.18,SSW,202,2.0,2.2,100,0.00,,,0.00,0.00,VWS V14.01,2014-02-20 14:41:00,
2014-02-20 06:45:00,47.3,47.3,30.18,South,180,2.5,2.7,100,0.00,,,0.00,0.00,VWS V14.01,2014-02-20 14:45:00,
2014-02-20 06:46:00,46.0,46.0,30.18,SSW,202,1.6,2.2,100,0.00,,,0.00,0.00,VWS V14.01,2014-02-20 14:46:00,
2014-02-20 06:51:00,46.0,46.0,30.18,SSW,202,1.6,2.2,100,0.00,,,0.00,0.00,VWS V14.01,2014-02-20 14:51:00,
2014-02-20 06:56:00,45.9,45.9,30.18,SSW,202,0.0,2.2,100,0.00,,,0.00,0.00,VWS V14.01,2014-02-20 14:56:00,
2014-02-20 07:00:00,48.7,48.2,30.18,North,0,0.0,3.4,98,0.00,,,0.00,0.00,VWS V14.01,2014-02-20 15:00:00,
2014-02-20 07:01:00,45.9,45.9,30.18,SSW,202,1.3,1.3,100,0.00,,,0.00,0.00,VWS V14.01,2014-02-20 15:01:00,
2014-02-20 07:06:00,45.9,45.9,30.18,SSW,202,1.3,2.0,100,0.00,,,0.00,0.00,VWS V14.01,2014-02-20 15:06:00,
2014-02-20 07:11:00,45.9,45.9,30.18,SSW,202,1.1,2.0,100,0.00,,,0.00,0.00,VWS V14.01,2014-02-20 15:11:00,
2014-02-20 07:15:00,49.6,48.8,30.18,SE,135,0.0,2.9,97,0.00,,,0.00,0.00,VWS V14.01,2014-02-20 15:15:00,
2014-02-20 07:16:00,45.9,45.9,30.18,SSW,202,0.9,2.5,100,0.00,,,0.00,0.00,VWS V14.01,2014-02-20 15:16:00,
2014-02-20 07:21:00,46.4,46.4,30.18,SSW,202,0.0,2.5,100,0.00,,,0.00,0.00,VWS V14.01,2014-02-20 15:21:00,
2014-02-20 07:26:00,46.6,46.6,30.18,SSW,202,2.0,2.5,100,0.00,,,0.00,0.00,VWS V14.01,2014-02-20 15:26:00,
2014-02-20 07:30:00,50.5,48.9,30.18,SE,135,0.0,0.0,94,0.00,,,0.00,0.00,VWS V14.01,2014-02-20 15:30:00,
2014-02-20 07:31:00,46.6,46.6,30.18,SSW,202,2.0,2.2,100,0.00,,,0.00,0.00,VWS V14.01,2014-02-20 15:31:00,
2014-02-20 07:36:00,47.1,47.1,30.18,SSW,202,1.1,2.5,100,0.00,,,0.00,0.00,VWS V14.01,2014-02-20 15:36:00,
2014-02-20 07:41:00,47.1,47.1,30.18,SW,225,0.0,2.5,100,0.00,,,0.00,0.00,VWS V14.01,2014-02-20 15:41:00,
2014-02-20 07:45:00,51.4,49.8,30.21,SE,135,0.0,0.0,94,0.00,,,0.00,0.00,VWS V14.01,2014-02-20 15:45:00,
2014-02-20 07:46:00,47.5,47.5,30.18,South,180,2.7,3.4,100,0.00,,,0.00,0.00,VWS V14.01,2014-02-20 15:46:00,
2014-02-20 07:51:00,48.4,47.8,30.18,SSW,202,1.6,3.4,98,0.00,,,0.00,0.00,VWS V14.01,2014-02-20 15:51:00,
2014-02-20 07:56:00,48.4,47.6,30.18,South,180,0.0,3.4,97,0.00,,,0.00,0.00,VWS V14.01,2014-02-20 15:56:00,
2014-02-20 08:00:00,52.2,48.1,30.18,NE,45,1.1,2.9,86,0.00,,,0.00,0.00,VWS V14.01,2014-02-20 16:00:00,
2014-02-20 08:01:00,48.7,48.2,30.18,North,0,0.0,0.0,98,0.00,,,0.00,0.00,VWS V14.01,2014-02-20 16:01:00,
2014-02-20 08:06:00,48.9,48.4,30.18,NNW,338,0.0,2.9,98,0.00,,,0.00,0.00,VWS V14.01,2014-02-20 16:06:00,
2014-02-20 08:11:00,49.3,48.7,30.18,SE,135,1.3,2.9,98,0.00,,,0.00,0.00,VWS V14.01,2014-02-20 16:11:00,
2014-02-20 08:15:00,52.9,49.1,30.18,East,90,2.2,2.2,87,0.00,,,0.00,0.00,VWS V14.01,2014-02-20 16:15:00,
2014-02-20 08:16:00,49.8,49.0,30.18,SE,135,0.0,0.0,97,0.00,,,0.00,0.00,VWS V14.01,2014-02-20 16:16:00,
2014-02-20 08:21:00,50.2,49.1,30.18,SE,135,0.0,0.0,96,0.00,,,0.00,0.00,VWS V14.01,2014-02-20 16:21:00,
2014-02-20 08:26:00,50.4,48.7,30.18,SE,135,0.0,0.0,94,0.00,,,0.00,0.00,VWS V14.01,2014-02-20 16:26:00,
2014-02-20 08:30:00,54.5,47.8,30.21,SE,135,0.0,2.2,78,0.00,,,0.00,0.00,VWS V14.01,2014-02-20 16:30:00,
2014-02-20 08:31:00,50.7,49.1,30.18,SE,135,0.0,0.0,94,0.00,,,0.00,0.00,VWS V14.01,2014-02-20 16:31:00,
2014-02-20 08:36:00,51.1,49.4,30.21,SE,135,0.0,0.0,94,0.00,,,0.00,0.00,VWS V14.01,2014-02-20 16:36:00,
2014-02-20 08:41:00,51.3,49.6,30.21,SE,135,0.0,0.0,94,0.00,,,0.00,0.00,VWS V14.01,2014-02-20 16:41:00,
2014-02-20 08:45:00,56.3,48.1,30.21,SE,135,0.0,0.0,74,0.00,,,0.00,0.00,VWS V14.01,2014-02-20 16:45:00,
2014-02-20 08:46:00,51.6,50.0,30.21,NE,45,2.9,2.9,94,0.00,,,0.00,0.00,VWS V14.01,2014-02-20 16:46:00,
2014-02-20 08:51:00,51.6,50.0,30.18,NNE,22,0.0,2.9,94,0.00,,,0.00,0.00,VWS V14.01,2014-02-20 16:51:00,
2014-02-20 08:56:00,52.2,49.3,30.18,NNE,22,0.0,2.9,90,0.00,,,0.00,0.00,VWS V14.01,2014-02-20 16:56:00,
2014-02-20 09:00:00,56.7,47.8,30.21,SE,135,0.0,0.0,72,0.00,,,0.00,0.00,VWS V14.01,2014-02-20 17:00:00,
2014-02-20 09:01:00,52.2,48.1,30.18,NE,45,0.0,1.6,86,0.00,,,0.00,0.00,VWS V14.01,2014-02-20 17:01:00,
2014-02-20 09:06:00,52.5,48.8,30.18,East,90,0.0,1.6,87,0.00,,,0.00,0.00,VWS V14.01,2014-02-20 17:06:00,
2014-02-20 09:11:00,52.7,49.0,30.18,East,90,0.0,1.6,87,0.00,,,0.00,0.00,VWS V14.01,2014-02-20 17:11:00,
2014-02-20 09:15:00,57.4,46.9,30.21,SE,135,0.0,0.0,68,0.00,,,0.00,0.00,VWS V14.01,2014-02-20 17:15:00,
2014-02-20 09:16:00,53.1,49.0,30.18,East,90,2.2,2.2,86,0.00,,,0.00,0.00,VWS V14.01,2014-02-20 17:16:00,
2014-02-20 09:21:00,53.4,48.4,30.21,East,90,2.2,2.2,83,0.00,,,0.00,0.00,VWS V14.01,2014-02-20 17:21:00,
2014-02-20 09:27:00,54.3,49.6,30.21,East,90,2.2,2.2,84,0.00,,,0.00,0.00,VWS V14.01,2014-02-20 17:27:00,
2014-02-20 09:30:00,58.6,45.2,30.21,ESE,112,2.5,2.5,61,0.00,,,0.00,0.00,VWS V14.01,2014-02-20 17:30:00,
2014-02-20 09:32:00,55.0,48.3,30.21,SE,135,0.0,0.0,78,0.00,,,0.00,0.00,VWS V14.01,2014-02-20 17:32:00,
2014-02-20 09:37:00,55.9,49.2,30.21,SE,135,0.0,0.0,78,0.00,,,0.00,0.00,VWS V14.01,2014-02-20 17:37:00,
2014-02-20 09:42:00,56.1,48.0,30.21,SE,135,0.0,0.0,74,0.00,,,0.00,0.00,VWS V14.01,2014-02-20 17:42:00,
2014-02-20 09:45:00,59.5,43.4,30.21,East,90,2.7,3.8,55,0.00,,,0.00,0.00,VWS V14.01,2014-02-20 17:45:00,
2014-02-20 09:47:00,55.9,47.4,30.21,SE,135,0.0,0.0,73,0.00,,,0.00,0.00,VWS V14.01,2014-02-20 17:47:00,
2014-02-20 09:52:00,56.1,48.0,30.21,SE,135,0.0,0.0,74,0.00,,,0.00,0.00,VWS V14.01,2014-02-20 17:52:00,
2014-02-20 09:57:00,56.5,48.7,30.21,SE,135,0.0,0.0,75,0.00,,,0.00,0.00,VWS V14.01,2014-02-20 17:57:00,
2014-02-20 10:00:00,60.4,43.2,30.21,ENE,68,2.5,3.4,53,0.00,,,0.00,0.00,VWS V14.01,2014-02-20 18:00:00,
2014-02-20 10:02:00,56.8,47.2,30.21,SE,135,0.0,0.0,70,0.00,,,0.00,0.00,VWS V14.01,2014-02-20 18:02:00,
2014-02-20 10:07:00,56.8,47.9,30.21,SE,135,0.0,0.0,72,0.00,,,0.00,0.00,VWS V14.01,2014-02-20 18:07:00,
2014-02-20 10:12:00,57.2,48.3,30.21,SE,135,0.0,0.0,72,0.00,,,0.00,0.00,VWS V14.01,2014-02-20 18:12:00,
2014-02-20 10:15:00,61.3,41.5,30.21,East,90,3.8,3.8,48,0.00,,,0.00,0.00,VWS V14.01,2014-02-20 18:15:00,
2014-02-20 10:17:00,57.4,46.5,30.21,SE,135,0.0,0.0,67,0.00,,,0.00,0.00,VWS V14.01,2014-02-20 18:17:00,
2014-02-20 10:22:00,57.6,45.5,30.21,SE,135,0.0,0.0,64,0.00,,,0.00,0.00,VWS V14.01,2014-02-20 18:22:00,
2014-02-20 10:27:00,58.3,45.8,30.21,ESE,112,2.5,2.5,63,0.00,,,0.00,0.00,VWS V14.01,2014-02-20 18:27:00,
2014-02-20 10:30:00,61.5,39.4,30.21,East,90,2.5,4.3,44,0.00,,,0.00,0.00,VWS V14.01,2014-02-20 18:30:00,
2014-02-20 10:32:00,59.0,45.2,30.21,ESE,112,2.5,2.5,60,0.00,,,0.00,0.00,VWS V14.01,2014-02-20 18:32:00,
2014-02-20 10:37:00,59.5,44.3,30.21,ESE,112,2.5,2.5,57,0.00,,,0.00,0.00,VWS V14.01,2014-02-20 18:37:00,
2014-02-20 10:42:00,59.4,43.2,30.21,ENE,68,3.1,3.1,55,0.00,,,0.00,0.00,VWS V14.01,2014-02-20 18:42:00,
2014-02-20 10:45:00,61.7,40.2,30.21,East,90,3.1,3.1,45,0.00,,,0.00,0.00,VWS V14.01,2014-02-20 18:45:00,
2014-02-20 10:47:00,59.9,43.2,30.21,East,90,2.9,2.9,54,0.00,,,0.00,0.00,VWS V14.01,2014-02-20 18:47:00,
2014-02-20 10:52:00,60.1,42.9,30.21,North,0,2.9,2.9,53,0.00,,,0.00,0.00,VWS V14.01,2014-02-20 18:52:00,
2014-02-20 10:57:00,60.1,42.4,30.21,ENE,68,1.6,2.9,52,0.00,,,0.00,0.00,VWS V14.01,2014-02-20 18:57:00,
2014-02-20 11:00:00,61.9,42.0,30.21,East,90,3.1,3.1,48,0.00,,,0.00,0.00,VWS V14.01,2014-02-20 19:00:00,
2014-02-20 11:02:00,60.8,43.1,30.21,ENE,68,1.6,2.9,52,0.00,,,0.00,0.00,VWS V14.01,2014-02-20 19:02:00,
2014-02-20 11:07:00,61.0,43.2,30.21,SSE,158,2.2,3.8,52,0.00,,,0.00,0.00,VWS V14.01,2014-02-20 19:07:00,
2014-02-20 11:12:00,61.3,42.6,30.21,ENE,68,1.6,3.8,50,0.00,,,0.00,0.00,VWS V14.01,2014-02-20 19:12:00,
2014-02-20 11:15:00,62.2,41.8,30.21,East,90,3.1,3.1,47,0.00,,,0.00,0.00,VWS V14.01,2014-02-20 19:15:00,
2014-02-20 11:17:00,61.5,42.2,30.21,East,90,2.7,3.8,49,0.00,,,0.00,0.00,VWS V14.01,2014-02-20 19:17:00,
2014-02-20 11:22:00,61.7,40.7,30.21,East,90,1.1,4.3,46,0.00,,,0.00,0.00,VWS V14.01,2014-02-20 19:22:00,
2014-02-20 11:27:00,61.5,40.6,30.21,East,90,2.5,4.3,46,0.00,,,0.00,0.00,VWS V14.01,2014-02-20 19:27:00,
2014-02-20 11:30:00,63.0,41.9,30.18,East,90,3.1,3.1,46,0.00,,,0.00,0.00,VWS V14.01,2014-02-20 19:30:00,
2014-02-20 11:32:00,61.7,40.7,30.21,East,90,2.5,2.5,46,0.00,,,0.00,0.00,VWS V14.01,2014-02-20 19:32:00,
2014-02-20 11:37:00,61.7,40.2,30.21,East,90,2.5,2.5,45,0.00,,,0.00,0.00,VWS V14.01,2014-02-20 19:37:00,
2014-02-20 11:42:00,61.9,40.9,30.21,East,90,3.1,3.1,46,0.00,,,0.00,0.00,VWS V14.01,2014-02-20 19:42:00,
2014-02-20 11:45:00,63.5,42.9,30.18,East,90,2.2,3.1,47,0.00,,,0.00,0.00,VWS V14.01,2014-02-20 19:45:00,
2014-02-20 11:47:00,61.7,40.2,30.21,East,90,3.1,3.1,45,0.00,,,0.00,0.00,VWS V14.01,2014-02-20 19:47:00,
2014-02-20 11:52:00,61.7,40.7,30.21,East,90,3.1,3.1,46,0.00,,,0.00,0.00,VWS V14.01,2014-02-20 19:52:00,
2014-02-20 11:57:00,61.9,41.5,30.21,East,90,3.1,3.1,47,0.00,,,0.00,0.00,VWS V14.01,2014-02-20 19:57:00,
2014-02-20 12:00:00,64.2,42.5,30.18,East,90,2.2,2.2,45,0.00,,,0.00,0.00,VWS V14.01,2014-02-20 20:00:00,
2014-02-20 12:02:00,61.9,42.0,30.21,East,90,3.1,3.1,48,0.00,,,0.00,0.00,VWS V14.01,2014-02-20 20:02:00,
2014-02-20 12:07:00,61.9,41.5,30.21,East,90,3.1,3.1,47,0.00,,,0.00,0.00,VWS V14.01,2014-02-20 20:07:00,
2014-02-20 12:12:00,61.9,42.0,30.21,East,90,3.1,3.1,48,0.00,,,0.00,0.00,VWS V14.01,2014-02-20 20:12:00,
2014-02-20 12:15:00,64.4,42.6,30.18,East,90,2.5,4.9,45,0.00,,,0.00,0.00,VWS V14.01,2014-02-20 20:15:00,
2014-02-20 12:17:00,62.4,42.5,30.21,East,90,3.1,3.1,48,0.00,,,0.00,0.00,VWS V14.01,2014-02-20 20:17:00,
2014-02-20 12:22:00,63.0,41.9,30.18,East,90,3.1,3.1,46,0.00,,,0.00,0.00,VWS V14.01,2014-02-20 20:22:00,
2014-02-20 12:27:00,62.8,41.7,30.18,East,90,3.1,3.1,46,0.00,,,0.00,0.00,VWS V14.01,2014-02-20 20:27:00,
2014-02-20 12:30:00,65.1,43.3,30.15,North,0,1.3,4.3,45,0.00,,,0.00,0.00,VWS V14.01,2014-02-20 20:30:00,
2014-02-20 12:32:00,62.8,41.7,30.18,East,90,2.2,3.1,46,0.00,,,0.00,0.00,VWS V14.01,2014-02-20 20:32:00,
2014-02-20 12:37:00,63.5,42.9,30.18,East,90,2.2,3.1,47,0.00,,,0.00,0.00,VWS V14.01,2014-02-20 20:37:00,
2014-02-20 12:42:00,63.5,42.4,30.18,East,90,2.2,3.1,46,0.00,,,0.00,0.00,VWS V14.01,2014-02-20 20:42:00,
2014-02-20 12:45:00,64.9,43.1,30.15,NNE,22,2.9,5.4,45,0.00,,,0.00,0.00,VWS V14.01,2014-02-20 20:45:00,
2014-02-20 12:47:00,64.0,42.9,30.18,East,90,2.2,2.2,46,0.00,,,0.00,0.00,VWS V14.01,2014-02-20 20:47:00,
2014-02-20 12:53:00,64.4,42.6,30.18,East,90,2.2,2.2,45,0.00,,,0.00,0.00,VWS V14.01,2014-02-20 20:53:00,
2014-02-20 12:58:00,64.4,42.6,30.18,East,90,2.2,2.2,45,0.00,,,0.00,0.00,VWS V14.01,2014-02-20 20:58:00,
2014-02-20 13:00:00,65.5,44.2,30.15,NNW,338,2.5,4.9,46,0.00,,,0.00,0.00,VWS V14.01,2014-02-20 21:00:00,
2014-02-20 13:03:00,64.2,43.0,30.18,East,90,2.2,2.2,46,0.00,,,0.00,0.00,VWS V14.01,2014-02-20 21:03:00,
2014-02-20 13:08:00,64.6,43.9,30.15,East,90,2.2,2.2,47,0.00,,,0.00,0.00,VWS V14.01,2014-02-20 21:08:00,
2014-02-20 13:13:00,64.6,42.8,30.18,East,90,2.5,4.0,45,0.00,,,0.00,0.00,VWS V14.01,2014-02-20 21:13:00,
2014-02-20 13:15:00,66.0,43.5,30.15,North,0,2.9,4.3,44,0.00,,,0.00,0.00,VWS V14.01,2014-02-20 21:15:00,
2014-02-20 13:18:00,64.2,43.0,30.18,North,0,1.3,4.3,46,0.00,,,0.00,0.00,VWS V14.01,2014-02-20 21:18:00,
2014-02-20 13:23:00,64.4,42.6,30.18,ENE,68,3.4,4.3,45,0.00,,,0.00,0.00,VWS V14.01,2014-02-20 21:23:00,
2014-02-20 13:28:00,64.9,43.1,30.15,NNE,22,2.9,4.3,45,0.00,,,0.00,0.00,VWS V14.01,2014-02-20 21:28:00,
2014-02-20 13:30:00,66.9,42.5,30.15,NE,45,4.0,5.4,41,0.00,,,0.00,0.00,VWS V14.01,2014-02-20 21:30:00,
2014-02-20 13:33:00,65.5,43.6,30.15,NE,45,3.4,4.0,45,0.00,,,0.00,0.00,VWS V14.01,2014-02-20 21:33:00,
2014-02-20 13:38:00,65.5,43.0,30.15,NE,45,2.9,4.9,44,0.00,,,0.00,0.00,VWS V14.01,2014-02-20 21:38:00,
2014-02-20 13:43:00,65.1,43.3,30.15,ENE,68,3.4,5.4,45,0.00,,,0.00,0.00,VWS V14.01,2014-02-20 21:43:00,
2014-02-20 13:45:00,66.4,41.3,30.15,East,90,3.6,5.6,40,0.00,,,0.00,0.00,VWS V14.01,2014-02-20 21:45:00,
2014-02-20 13:48:00,64.9,43.1,30.15,NNE,22,3.4,4.9,45,0.00,,,0.00,0.00,VWS V14.01,2014-02-20 21:48:00,
2014-02-20 13:53:00,65.3,43.4,30.15,North,0,3.6,4.9,45,0.00,,,0.00,0.00,VWS V14.01,2014-02-20 21:53:00,
2014-02-20 13:58:00,65.3,43.4,30.15,North,0,1.3,4.9,45,0.00,,,0.00,0.00,VWS V14.01,2014-02-20 21:58:00,
2014-02-20 14:00:00,66.7,42.9,30.15,NE,45,2.5,5.6,42,0.00,,,0.00,0.00,VWS V14.01,2014-02-20 22:00:00,
2014-02-20 14:03:00,65.8,43.9,30.15,North,0,2.9,3.8,45,0.00,,,0.00,0.00,VWS V14.01,2014-02-20 22:03:00,
2014-02-20 14:08:00,65.3,42.2,30.15,North,0,3.8,4.0,43,0.00,,,0.00,0.00,VWS V14.01,2014-02-20 22:08:00,
2014-02-20 14:13:00,65.8,43.3,30.15,North,0,3.1,4.3,44,0.00,,,0.00,0.00,VWS V14.01,2014-02-20 22:13:00,
2014-02-20 14:15:00,68.0,44.7,30.12,SSW,202,2.7,3.1,43,0.00,,,0.00,0.00,VWS V14.01,2014-02-20 22:15:00,
2014-02-20 14:18:00,66.4,43.2,30.15,East,90,3.6,3.6,43,0.00,,,0.00,0.00,VWS V14.01,2014-02-20 22:18:00,
2014-02-20 14:23:00,66.6,43.4,30.15,NE,45,1.6,3.6,43,0.00,,,0.00,0.00,VWS V14.01,2014-02-20 22:23:00,
2014-02-20 14:28:00,67.1,42.0,30.15,NE,45,4.9,5.4,40,0.00,,,0.00,0.00,VWS V14.01,2014-02-20 22:28:00,
2014-02-20 14:30:00,68.0,45.9,30.15,SSW,202,0.0,3.6,45,0.00,,,0.00,0.00,VWS V14.01,2014-02-20 22:30:00,
2014-02-20 14:33:00,66.4,41.3,30.15,East,90,3.4,4.3,40,0.00,,,0.00,0.00,VWS V14.01,2014-02-20 22:33:00,
2014-02-20 14:38:00,66.4,41.3,30.15,NE,45,2.9,5.6,40,0.00,,,0.00,0.00,VWS V14.01,2014-02-20 22:38:00,
2014-02-20 14:43:00,66.6,42.2,30.15,ENE,68,4.3,5.6,41,0.00,,,0.00,0.00,VWS V14.01,2014-02-20 22:43:00,
2014-02-20 14:45:00,63.9,44.3,30.15,SE,135,2.9,6.3,49,0.00,,,0.00,0.00,VWS V14.01,2014-02-20 22:45:00,
2014-02-20 14:48:00,66.6,42.2,30.15,NE,45,3.1,3.6,41,0.00,,,0.00,0.00,VWS V14.01,2014-02-20 22:48:00,
2014-02-20 14:53:00,66.4,42.0,30.15,NE,45,3.4,5.6,41,0.00,,,0.00,0.00,VWS V14.01,2014-02-20 22:53:00,
2014-02-20 14:58:00,66.6,42.2,30.15,SE,135,3.4,5.6,41,0.00,,,0.00,0.00,VWS V14.01,2014-02-20 22:58:00,
2014-02-20 15:00:00,62.8,44.9,30.15,South,180,3.1,4.3,52,0.00,,,0.00,0.00,VWS V14.01,2014-02-20 23:00:00,
2014-02-20 15:03:00,67.1,42.6,30.15,ESE,112,1.6,3.1,41,0.00,,,0.00,0.00,VWS V14.01,2014-02-20 23:03:00,
2014-02-20 15:08:00,67.8,43.3,30.15,West,270,2.2,3.1,41,0.00,,,0.00,0.00,VWS V14.01,2014-02-20 23:08:00,
2014-02-20 15:13:00,68.5,45.2,30.12,WNW,292,0.0,3.1,43,0.00,,,0.00,0.00,VWS V14.01,2014-02-20 23:13:00,
2014-02-20 15:15:00,61.5,46.2,30.15,South,180,4.0,6.3,57,0.00,,,0.00,0.00,VWS V14.01,2014-02-20 23:15:00,
2014-02-20 15:18:00,67.3,44.7,30.12,South,180,1.6,3.6,44,0.00,,,0.00,0.00,VWS V14.01,2014-02-20 23:18:00,
2014-02-20 15:24:00,67.5,43.6,30.12,South,180,2.5,3.6,42,0.00,,,0.00,0.00,VWS V14.01,2014-02-20 23:24:00,
2014-02-20 15:29:00,67.8,45.7,30.15,SSW,202,0.0,3.6,45,0.00,,,0.00,0.00,VWS V14.01,2014-02-20 23:29:00,
2014-02-20 15:30:00,61.5,46.2,30.15,SSE,158,3.8,6.5,57,0.00,,,0.00,0.00,VWS V14.01,2014-02-20 23:30:00,
2014-02-20 15:34:00,67.5,46.0,30.15,SSW,202,0.0,2.0,46,0.00,,,0.00,0.00,VWS V14.01,2014-02-20 23:34:00,
2014-02-20 15:39:00,66.6,45.2,30.15,SSE,158,1.3,2.5,46,0.00,,,0.00,0.00,VWS V14.01,2014-02-20 23:39:00,
2014-02-20 15:44:00,64.2,44.7,30.15,SE,135,2.9,6.3,49,0.00,,,0.00,0.00,VWS V14.01,2014-02-20 23:44:00,
2014-02-20 15:45:00,61.3,45.0,30.12,South,180,2.9,7.8,55,0.00,,,0.00,0.00,VWS V14.01,2014-02-20 23:45:00,
2014-02-20 15:49:00,63.3,44.4,30.15,SSW,202,3.6,3.6,50,0.00,,,0.00,0.00,VWS V14.01,2014-02-20 23:49:00,
2014-02-20 15:54:00,63.3,44.9,30.15,SW,225,3.1,4.3,51,0.00,,,0.00,0.00,VWS V14.01,2014-02-20 23:54:00,
2014-02-20 15:59:00,62.6,44.2,30.15,SSW,202,4.3,4.3,51,0.00,,,0.00,0.00,VWS V14.01,2014-02-20 23:59:00,
2014-02-20 16:00:00,60.3,45.4,30.12,SSW,202,3.8,6.0,58,0.00,,,0.00,0.00,VWS V14.01,2014-02-21 00:00:00,
2014-02-20 16:04:00,62.2,45.9,30.15,SSW,202,1.6,3.6,55,0.00,,,0.00,0.00,VWS V14.01,2014-02-21 00:04:00,
2014-02-20 16:09:00,61.7,46.3,30.15,SSW,202,2.5,3.6,57,0.00,,,0.00,0.00,VWS V14.01,2014-02-21 00:09:00,
2014-02-20 16:14:00,61.3,46.5,30.15,South,180,2.7,6.3,58,0.00,,,0.00,0.00,VWS V14.01,2014-02-21 00:14:00,
2014-02-20 16:15:00,59.4,46.3,30.12,SSW,202,2.5,4.7,62,0.00,,,0.00,0.00,VWS V14.01,2014-02-21 00:15:00,
2014-02-20 16:19:00,61.5,47.5,30.15,South,180,1.6,5.4,60,0.00,,,0.00,0.00,VWS V14.01,2014-02-21 00:19:00,
2014-02-20 16:24:00,61.3,46.5,30.15,SSW,202,2.5,5.4,58,0.00,,,0.00,0.00,VWS V14.01,2014-02-21 00:24:00,
2014-02-20 16:29:00,61.3,46.9,30.15,South,180,3.1,6.5,59,0.00,,,0.00,0.00,VWS V14.01,2014-02-21 00:29:00,
2014-02-20 16:30:00,58.8,46.3,30.12,SSW,202,2.5,3.6,63,0.00,,,0.00,0.00,VWS V14.01,2014-02-21 00:30:00,
2014-02-20 16:34:00,61.9,45.1,30.15,SE,135,7.8,7.8,54,0.00,,,0.00,0.00,VWS V14.01,2014-02-21 00:34:00,
2014-02-20 16:39:00,61.9,45.1,30.15,SW,225,3.4,7.8,54,0.00,,,0.00,0.00,VWS V14.01,2014-02-21 00:39:00,
2014-02-20 16:44:00,61.7,44.9,30.12,SSW,202,4.7,7.8,54,0.00,,,0.00,0.00,VWS V14.01,2014-02-21 00:44:00,
2014-02-20 16:45:00,58.5,47.2,30.12,South,180,2.7,4.3,66,0.00,,,0.00,0.00,VWS V14.01,2014-02-21 00:45:00,
2014-02-20 16:49:00,61.2,45.4,30.12,South,180,2.7,4.9,56,0.00,,,0.00,0.00,VWS V14.01,2014-02-21 00:49:00,
2014-02-20 16:54:00,60.8,44.5,30.12,SSE,158,4.0,6.0,55,0.00,,,0.00,0.00,VWS V14.01,2014-02-21 00:54:00,
2014-02-20 17:00:00,60.3,45.4,30.12,SSW,202,3.8,6.0,58,0.00,,,0.00,0.00,VWS V14.01,2014-02-21 01:00:00,
2014-02-20 17:05:00,60.1,46.2,30.12,South,180,3.1,4.7,60,0.00,,,0.00,0.00,VWS V14.01,2014-02-21 01:05:00,
2014-02-20 17:10:00,59.5,46.5,30.12,SSW,202,2.9,4.7,62,0.00,,,0.00,0.00,VWS V14.01,2014-02-21 01:10:00,
2014-02-20 17:15:00,59.4,46.3,30.12,SW,225,2.7,2.7,62,0.00,,,0.00,0.00,VWS V14.01,2014-02-21 01:15:00,
2014-02-20 17:20:00,59.2,45.8,30.12,SSW,202,2.5,3.6,61,0.00,,,0.00,0.00,VWS V14.01,2014-02-21 01:20:00,
2014-02-20 17:25:00,59.0,46.4,30.12,SSW,202,2.7,3.6,63,0.00,,,0.00,0.00,VWS V14.01,2014-02-21 01:25:00,
2014-02-20 17:30:00,58.8,46.3,30.12,SSW,202,2.7,2.7,63,0.00,,,0.00,0.00,VWS V14.01,2014-02-21 01:30:00,
2014-02-20 17:35:00,58.8,46.3,30.12,SSW,202,3.1,3.6,63,0.00,,,0.00,0.00,VWS V14.01,2014-02-21 01:35:00,
2014-02-20 17:40:00,58.5,46.8,30.12,South,180,3.6,4.3,65,0.00,,,0.00,0.00,VWS V14.01,2014-02-21 01:40:00,
2014-02-20 17:45:00,58.5,47.2,30.12,South,180,2.7,2.7,66,0.00,,,0.00,0.00,VWS V14.01,2014-02-21 01:45:00,
2014-02-20 17:50:00,57.9,46.2,30.12,SSW,202,2.9,3.8,65,0.00,,,0.00,0.00,VWS V14.01,2014-02-21 01:50:00,
2014-02-20 17:55:00,57.9,45.8,30.12,SSW,202,3.6,4.3,64,0.00,,,0.00,0.00,VWS V14.01,2014-02-21 01:55:00,
2014-02-20 18:00:00,57.7,45.7,30.15,South,180,2.5,2.7,64,0.00,,,0.00,0.00,VWS V14.01,2014-02-21 02:00:00,
2014-02-20 18:05:00,57.6,45.1,30.15,South,180,3.1,5.4,63,0.00,,,0.00,0.00,VWS V14.01,2014-02-21 02:05:00,
2014-02-20 18:10:00,57.4,45.7,30.15,South,180,2.9,5.4,65,0.00,,,0.00,0.00,VWS V14.01,2014-02-21 02:10:00,
2014-02-20 18:15:00,57.0,46.2,30.15,SSW,202,2.0,2.5,67,0.00,,,0.00,0.00,VWS V14.01,2014-02-21 02:15:00,
2014-02-20 18:20:00,56.8,45.2,30.15,SW,225,2.5,3.4,65,0.00,,,0.00,0.00,VWS V14.01,2014-02-21 02:20:00,
2014-02-20 18:25:00,56.7,45.0,30.15,SSW,202,3.4,3.6,65,0.00,,,0.00,0.00,VWS V14.01,2014-02-21 02:25:00,
2014-02-20 18:30:00,54.1,48.5,30.15,South,180,0.0,2.2,81,0.00,,,0.00,0.00,VWS V14.01,2014-02-21 02:30:00,
2014-02-20 18:31:00,56.5,45.7,30.15,SSW,202,3.4,3.4,67,0.00,,,0.00,0.00,VWS V14.01,2014-02-21 02:31:00,
2014-02-20 18:37:00,56.7,45.0,30.15,SSW,202,3.4,3.8,65,0.00,,,0.00,0.00,VWS V14.01,2014-02-21 02:37:00,
2014-02-20 18:42:00,56.3,45.9,30.15,SSW,202,2.7,3.8,68,0.00,,,0.00,0.00,VWS V14.01,2014-02-21 02:42:00,
2014-02-20 18:45:00,53.6,48.9,30.15,South,180,0.0,2.2,84,0.00,,,0.00,0.00,VWS V14.01,2014-02-21 02:45:00,
2014-02-20 18:47:00,55.9,46.7,30.15,SSW,202,2.0,2.7,71,0.00,,,0.00,0.00,VWS V14.01,2014-02-21 02:47:00,
2014-02-20 18:52:00,56.3,45.9,30.15,SSW,202,3.1,4.5,68,0.00,,,0.00,0.00,VWS V14.01,2014-02-21 02:52:00,
2014-02-20 18:57:00,55.9,46.7,30.15,South,180,1.6,4.5,71,0.00,,,0.00,0.00,VWS V14.01,2014-02-21 02:57:00,
2014-02-20 19:00:00,53.8,49.4,30.15,South,180,0.0,0.0,85,0.00,,,0.00,0.00,VWS V14.01,2014-02-21 03:00:00,
2014-02-20 19:02:00,55.4,47.3,30.15,South,180,2.0,2.2,74,0.00,,,0.00,0.00,VWS V14.01,2014-02-21 03:02:00,
2014-02-20 19:07:00,55.0,47.6,30.15,South,180,1.1,2.2,76,0.00,,,0.00,0.00,VWS V14.01,2014-02-21 03:07:00,
2014-02-20 19:12:00,55.0,47.6,30.15,South,180,1.1,2.5,76,0.00,,,0.00,0.00,VWS V14.01,2014-02-21 03:12:00,
2014-02-20 19:15:00,53.4,49.7,30.15,South,180,0.0,0.0,87,0.00,,,0.00,0.00,VWS V14.01,2014-02-21 03:15:00,
2014-02-20 19:18:00,54.5,47.5,30.15,South,180,1.3,1.6,77,0.00,,,0.00,0.00,VWS V14.01,2014-02-21 03:18:00,
2014-02-20 19:23:00,54.3,48.3,30.15,South,180,1.6,2.2,80,0.00,,,0.00,0.00,VWS V14.01,2014-02-21 03:23:00,
2014-02-20 19:28:00,54.1,48.1,30.15,South,180,1.3,2.2,80,0.00,,,0.00,0.00,VWS V14.01,2014-02-21 03:28:00,
2014-02-20 19:30:00,52.7,49.8,30.15,South,180,0.0,0.0,90,0.00,,,0.00,0.00,VWS V14.01,2014-02-21 03:30:00,
2014-02-20 19:33:00,54.0,48.3,30.15,South,180,1.6,2.0,81,0.00,,,0.00,0.00,VWS V14.01,2014-02-21 03:33:00,
2014-02-20 19:38:00,53.6,48.6,30.15,South,180,2.2,2.2,83,0.00,,,0.00,0.00,VWS V14.01,2014-02-21 03:38:00,
2014-02-20 19:43:00,53.6,48.9,30.15,South,180,0.0,2.2,84,0.00,,,0.00,0.00,VWS V14.01,2014-02-21 03:43:00,
2014-02-20 19:45:00,52.2,49.3,30.15,SSW,202,1.6,2.2,90,0.00,,,0.00,0.00,VWS V14.01,2014-02-21 03:45:00,
2014-02-20 19:48:00,53.6,48.9,30.15,South,180,0.0,0.0,84,0.00,,,0.00,0.00,VWS V14.01,2014-02-21 03:48:00,
2014-02-20 19:54:00,53.6,48.9,30.15,South,180,0.0,0.0,84,0.00,,,0.00,0.00,VWS V14.01,2014-02-21 03:54:00,
2014-02-20 19:59:00,54.0,49.6,30.15,South,180,0.0,0.0,85,0.00,,,0.00,0.00,VWS V14.01,2014-02-21 03:59:00,
2014-02-20 20:00:00,52.2,49.3,30.15,SSW,202,0.0,2.7,90,0.00,,,0.00,0.00,VWS V14.01,2014-02-21 04:00:00,
2014-02-20 20:04:00,53.8,49.7,30.15,South,180,0.0,0.0,86,0.00,,,0.00,0.00,VWS V14.01,2014-02-21 04:04:00,
2014-02-20 20:09:00,53.6,49.5,30.15,South,180,0.0,0.0,86,0.00,,,0.00,0.00,VWS V14.01,2014-02-21 04:09:00,
2014-02-20 20:14:00,53.4,49.7,30.15,South,180,0.0,0.0,87,0.00,,,0.00,0.00,VWS V14.01,2014-02-21 04:14:00,
2014-02-20 20:15:00,52.0,48.8,30.15,SSW,202,0.0,2.7,89,0.00,,,0.00,0.00,VWS V14.01,2014-02-21 04:15:00,
2014-02-20 20:19:00,53.2,49.8,30.15,South,180,0.0,0.0,88,0.00,,,0.00,0.00,VWS V14.01,2014-02-21 04:19:00,
2014-02-20 20:24:00,52.9,49.4,30.15,South,180,0.0,0.0,88,0.00,,,0.00,0.00,VWS V14.01,2014-02-21 04:24:00,
2014-02-20 20:29:00,52.7,49.8,30.15,South,180,0.0,0.0,90,0.00,,,0.00,0.00,VWS V14.01,2014-02-21 04:29:00,
2014-02-20 20:30:00,52.2,49.0,30.15,SSW,202,0.0,2.2,89,0.00,,,0.00,0.00,VWS V14.01,2014-02-21 04:30:00,
2014-02-20 20:34:00,52.5,48.8,30.15,South,180,0.0,0.0,87,0.00,,,0.00,0.00,VWS V14.01,2014-02-21 04:34:00,
2014-02-20 20:39:00,52.3,49.2,30.15,SSW,202,2.0,2.7,89,0.00,,,0.00,0.00,VWS V14.01,2014-02-21 04:39:00,
2014-02-20 20:44:00,52.2,49.3,30.15,SSW,202,1.6,2.7,90,0.00,,,0.00,0.00,VWS V14.01,2014-02-21 04:44:00,
2014-02-20 20:45:00,51.6,49.7,30.15,SSW,202,0.0,1.1,93,0.00,,,0.00,0.00,VWS V14.01,2014-02-21 04:45:00,
2014-02-20 20:49:00,52.2,48.7,30.15,SSW,202,0.0,1.6,88,0.00,,,0.00,0.00,VWS V14.01,2014-02-21 04:49:00,
2014-02-20 20:54:00,52.0,48.8,30.15,SSW,202,0.0,1.6,89,0.00,,,0.00,0.00,VWS V14.01,2014-02-21 04:54:00,
2014-02-20 20:59:00,52.2,49.3,30.15,SSW,202,0.9,2.7,90,0.00,,,0.00,0.00,VWS V14.01,2014-02-21 04:59:00,
2014-02-20 21:00:00,51.1,49.4,30.15,SSW,202,0.0,0.0,94,0.00,,,0.00,0.00,VWS V14.01,2014-02-21 05:00:00,
2014-02-20 21:01:00,52.2,49.3,30.15,SSW,202,0.0,0.0,90,0.00,,,0.00,0.00,VWS V14.01,2014-02-21 05:01:00,
2014-02-20 21:02:00,52.2,49.3,30.15,SSW,202,1.6,1.6,90,0.00,,,0.00,0.00,VWS V14.01,2014-02-21 05:02:00,
2014-02-20 21:03:00,52.2,49.3,30.15,SSW,202,0.0,0.0,90,0.00,,,0.00,0.00,VWS V14.01,2014-02-21 05:03:00,
2014-02-20 21:04:00,52.0,49.1,30.15,SSW,202,1.6,1.6,90,0.00,,,0.00,0.00,VWS V14.01,2014-02-21 05:04:00,
2014-02-20 21:09:00,51.8,48.7,30.15,SSW,202,2.0,2.0,89,0.00,,,0.00,0.00,VWS V14.01,2014-02-21 05:09:00,
2014-02-20 21:10:00,52.0,48.8,30.15,SSW,202,1.1,2.7,89,0.00,,,0.00,0.00,VWS V14.01,2014-02-21 05:10:00,
2014-02-20 21:12:00,52.0,48.8,30.15,SSW,202,1.1,2.0,89,0.00,,,0.00,0.00,VWS V14.01,2014-02-21 05:12:00,
2014-02-20 21:15:00,50.9,49.8,30.15,SSW,202,0.0,0.0,96,0.00,,,0.00,0.00,VWS V14.01,2014-02-21 05:15:00,
2014-02-20 21:17:00,51.8,48.4,30.15,SSW,202,0.0,1.1,88,0.00,,,0.00,0.00,VWS V14.01,2014-02-21 05:17:00,
2014-02-20 21:22:00,51.8,48.4,30.15,SSW,202,0.0,1.1,88,0.00,,,0.00,0.00,VWS V14.01,2014-02-21 05:22:00,
2014-02-20 21:27:00,52.2,49.0,30.15,SSW,202,0.0,2.2,89,0.00,,,0.00,0.00,VWS V14.01,2014-02-21 05:27:00,
2014-02-20 21:30:00,50.4,49.3,30.15,SSW,202,0.0,0.0,96,0.00,,,0.00,0.00,VWS V14.01,2014-02-21 05:30:00,
2014-02-20 21:32:00,51.8,49.3,30.15,SSW,202,0.0,0.0,91,0.00,,,0.00,0.00,VWS V14.01,2014-02-21 05:32:00,
2014-02-20 21:37:00,51.8,49.3,30.15,SSW,202,0.0,1.1,91,0.00,,,0.00,0.00,VWS V14.01,2014-02-21 05:37:00,
2014-02-20 21:43:00,51.6,49.4,30.15,SSW,202,0.0,1.1,92,0.00,,,0.00,0.00,VWS V14.01,2014-02-21 05:43:00,
2014-02-20 21:45:00,51.3,49.0,30.15,SSW,202,2.5,3.1,92,0.00,,,0.00,0.00,VWS V14.01,2014-02-21 05:45:00,
2014-02-20 21:48:00,51.6,49.7,30.15,SSW,202,0.0,0.0,93,0.00,,,0.00,0.00,VWS V14.01,2014-02-21 05:48:00,
2014-02-20 21:53:00,51.4,49.5,30.15,SSW,202,0.0,0.0,93,0.00,,,0.00,0.00,VWS V14.01,2014-02-21 05:53:00,
2014-02-20 21:58:00,51.1,49.4,30.15,SSW,202,0.0,0.0,94,0.00,,,0.00,0.00,VWS V14.01,2014-02-21 05:58:00,
2014-02-20 22:00:00,51.3,49.3,30.15,SSW,202,2.2,3.1,93,0.00,,,0.00,0.00,VWS V14.01,2014-02-21 06:00:00,
2014-02-20 22:03:00,51.3,49.9,30.15,SSW,202,0.0,0.0,95,0.00,,,0.00,0.00,VWS V14.01,2014-02-21 06:03:00,
2014-02-20 22:08:00,51.1,49.7,30.15,SSW,202,0.0,0.0,95,0.00,,,0.00,0.00,VWS V14.01,2014-02-21 06:08:00,
2014-02-20 22:13:00,50.9,49.8,30.15,SSW,202,0.0,0.0,96,0.00,,,0.00,0.00,VWS V14.01,2014-02-21 06:13:00,
2014-02-20 22:15:00,50.7,49.3,30.12,SSW,202,2.5,2.7,95,0.00,,,0.00,0.00,VWS V14.01,2014-02-21 06:15:00,
2014-02-20 22:18:00,50.9,49.5,30.15,SSW,202,0.0,0.0,95,0.00,,,0.00,0.00,VWS V14.01,2014-02-21 06:18:00,
2014-02-20 22:23:00,50.9,49.2,30.15,SSW,202,0.0,0.0,94,0.00,,,0.00,0.00,VWS V14.01,2014-02-21 06:23:00,
2014-02-20 22:28:00,50.4,49.3,30.15,SSW,202,0.0,0.0,96,0.00,,,0.00,0.00,VWS V14.01,2014-02-21 06:28:00,
2014-02-20 22:30:00,50.7,49.6,30.12,SSW,202,2.0,2.5,96,0.00,,,0.00,0.00,VWS V14.01,2014-02-21 06:30:00,
2014-02-20 22:33:00,50.4,49.3,30.15,SSW,202,0.0,0.0,96,0.00,,,0.00,0.00,VWS V14.01,2014-02-21 06:33:00,
2014-02-20 22:38:00,50.5,49.2,30.15,SSW,202,3.1,3.1,95,0.00,,,0.00,0.00,VWS V14.01,2014-02-21 06:38:00,
2014-02-20 22:43:00,51.1,49.1,30.15,SSW,202,2.5,3.1,93,0.00,,,0.00,0.00,VWS V14.01,2014-02-21 06:43:00,
2014-02-20 22:45:00,50.4,49.3,30.12,SSW,202,2.0,2.9,96,0.00,,,0.00,0.00,VWS V14.01,2014-02-21 06:45:00,
2014-02-20 22:48:00,51.1,48.8,30.15,SSW,202,2.5,3.1,92,0.00,,,0.00,0.00,VWS V14.01,2014-02-21 06:48:00,
2014-02-20 22:53:00,51.3,49.0,30.15,SSW,202,2.2,3.1,92,0.00,,,0.00,0.00,VWS V14.01,2014-02-21 06:53:00,
2014-02-20 22:58:00,51.3,49.3,30.15,SSW,202,2.5,3.1,93,0.00,,,0.00,0.00,VWS V14.01,2014-02-21 06:58:00,
2014-02-20 23:00:00,50.4,49.5,30.12,SSW,202,2.5,3.1,97,0.00,,,0.00,0.00,VWS V14.01,2014-02-21 07:00:00,
2014-02-20 23:03:00,51.1,49.4,30.15,SSW,202,2.0,2.2,94,0.00,,,0.00,0.00,VWS V14.01,2014-02-21 07:03:00,
2014-02-20 23:08:00,50.9,49.2,30.15,SSW,202,2.0,2.2,94,0.00,,,0.00,0.00,VWS V14.01,2014-02-21 07:08:00,
2014-02-20 23:13:00,50.9,49.5,30.12,SSW,202,1.6,2.7,95,0.00,,,0.00,0.00,VWS V14.01,2014-02-21 07:13:00,
2014-02-20 23:15:00,49.8,49.3,30.12,SSW,202,2.0,3.1,98,0.00,,,0.00,0.00,VWS V14.01,2014-02-21 07:15:00,
2014-02-20 23:18:00,50.7,49.6,30.12,SSW,202,2.0,2.5,96,0.00,,,0.00,0.00,VWS V14.01,2014-02-21 07:18:00,
2014-02-20 23:23:00,50.5,49.5,30.12,SSW,202,1.3,2.5,96,0.00,,,0.00,0.00,VWS V14.01,2014-02-21 07:23:00,
2014-02-20 23:28:00,50.7,49.6,30.12,SSW,202,1.6,2.5,96,0.00,,,0.00,0.00,VWS V14.01,2014-02-21 07:28:00,
2014-02-20 23:30:00,49.8,49.8,30.12,SSW,202,2.5,2.5,100,0.00,,,0.00,0.00,VWS V14.01,2014-02-21 07:30:00,
2014-02-20 23:33:00,50.7,49.6,30.12,SSW,202,2.5,2.9,96,0.00,,,0.00,0.00,VWS V14.01,2014-02-21 07:33:00,
2014-02-20 23:38:00,50.5,49.5,30.12,South,180,1.6,2.9,96,0.00,,,0.00,0.00,VWS V14.01,2014-02-21 07:38:00,
2014-02-20 23:43:00,50.4,49.3,30.12,SW,225,2.5,2.9,96,0.00,,,0.00,0.00,VWS V14.01,2014-02-21 07:43:00,
2014-02-20 23:45:00,49.8,49.8,30.12,SSW,202,2.0,2.7,100,0.00,,,0.00,0.00,VWS V14.01,2014-02-21 07:45:00,
2014-02-20 23:48:00,50.2,49.1,30.12,SSW,202,2.0,2.0,96,0.00,,,0.00,0.00,VWS V14.01,2014-02-21 07:48:00,
2014-02-20 23:53:00,50.4,49.5,30.12,SSW,202,2.7,2.9,97,0.00,,,0.00,0.00,VWS V14.01,2014-02-21 07:53:00,
2014-02-20 23:58:00,50.4,49.5,30.12,SSW,202,2.5,3.1,97,0.00,,,0.00,0.00,VWS V14.01,2014-02-21 07:58:00,